This is the latest recevied weather packets stored in our database for station/object KQ4JKJ. If no packets are shown the sender has not sent any weather packets the latest 10 day(s).
| Time | Temp. | Humidity | Pressure | Rain* | Wind** | Luminosity | Snow |
|---|---|---|---|---|---|---|---|
| 1777295265 | 25.56° C | 85% | 1009.8 hPa | 0 mm | - | 330 W/m² | - |
| 1777294963 | 25.56° C | 86% | 1009.7 hPa | 0 mm | - | 121 W/m² | - |
| 1777294658 | 25.56° C | 87% | 1009.7 hPa | 0 mm | - | 258 W/m² | - |
| 1777294354 | 25.56° C | 88% | 1009.5 hPa | 0 mm | - | 224 W/m² | - |
| 1777294051 | 25.56° C | 88% | 1009.4 hPa | 0 mm | - | 196 W/m² | - |
| 1777293748 | 25° C | 90% | 1009.4 hPa | 0 mm | - | 175 W/m² | - |
| 1777293442 | 24.44° C | 92% | 1009.5 hPa | 0 mm | - | 155 W/m² | - |
| 1777293139 | 23.89° C | 98% | 1009.2 hPa | 0 mm | - | 138 W/m² | - |
| 1777292837 | 23.33° C | 99% | 1009.3 hPa | 0 mm | - | 123 W/m² | - |
| 1777292534 | 22.78° C | 99% | 1009.2 hPa | 0 mm | - | 110 W/m² | - |
| 1777292230 | 22.78° C | 99% | 1009.1 hPa | 0 mm | - | 102 W/m² | - |
| 1777291926 | 22.78° C | 99% | 1009.1 hPa | 0 mm | - | 96 W/m² | - |
| 1777291623 | 22.22° C | 99% | 1009 hPa | 0 mm | - | 82 W/m² | - |
| 1777291320 | 22.22° C | 99% | 1008.7 hPa | 0 mm | - | 74 W/m² | - |
| 1777291016 | 21.67° C | 99% | 1008.8 hPa | 0 mm | - | 67 W/m² | - |
| 1777290714 | 21.67° C | 99% | 1008.8 hPa | 0 mm | - | 37 W/m² | - |
| 1777290410 | 21.67° C | 99% | 1008.6 hPa | 0 mm | - | 36 W/m² | - |
| 1777290104 | 21.67° C | 99% | 1008.7 hPa | 0 mm | - | 33 W/m² | - |
| 1777289802 | 21.67° C | 99% | 1008.6 hPa | 0 mm | - | 31 W/m² | - |
| 1777289498 | 21.67° C | 99% | 1008.3 hPa | 0 mm | - | 29 W/m² | - |
| 1777289194 | 21.11° C | 99% | 1008.2 hPa | 0 mm | - | 26 W/m² | - |
| 1777288891 | 21.11° C | 99% | 1008.3 hPa | 0 mm | - | 23 W/m² | - |
| 1777288588 | 21.11° C | 99% | 1008.3 hPa | 0 mm | - | 20 W/m² | - |
| 1777288285 | 21.11° C | 99% | 1008.2 hPa | 0 mm | - | 17 W/m² | - |
| 1777287981 | 21.11° C | 99% | 1007.8 hPa | 0 mm | - | 13 W/m² | - |
* Rain latest hour (hover to see other rain measurements)
** Current wind speed in m/s (hover to see current wind gust speed)